EW4725 Weather Reports


time (UTC)temp
F
wind
direction
speed
knots
gust
knots
rain 1hr
in
rain 24hr
in
rain mn
in
humidity
%
barometer
mb
20260506103116 54 0.0 0.0 0.00 0.02 0.00 91 1017.1
20260506102636 54 0.0 0.0 0.00 0.02 0.00 91 1017.1
20260506102116 55 0.0 0.0 0.00 0.02 0.00 91 1017.1
20260506101616 55 0.0 0.0 0.00 0.02 0.00 91 1017.1
20260506101116 55 0.0 0.0 0.00 0.02 0.00 92 1017.1
20260506100616 55 0.0 0.0 0.00 0.02 0.00 92 1017.0
20260506100116 54 0.0 0.0 0.00 0.02 0.00 91 1017.1
20260506095616 55 0.0 0.0 0.00 0.02 0.00 91 1017.1
20260506095116 55 0.0 0.0 0.00 0.02 0.00 91 1017.2
20260506094616 54 0.0 0.0 0.00 0.02 0.00 91 1017.1
20260506094116 54 0.0 0.0 0.00 0.03 0.00 90 1017.2
20260506093616 55 0.0 0.0 0.00 0.04 0.00 90 1017.1
20260506093217 54 0.0 0.0 0.00 0.04 0.00 89 1017.1
20260506092616 55 0.0 0.0 0.00 0.04 0.00 89 1017.2
20260506092116 55 0.0 0.0 0.00 0.04 0.00 88 1017.2
20260506091616 55 0.0 0.0 0.00 0.04 0.00 88 1017.2
20260506091116 56 0.0 0.0 0.00 0.04 0.00 88 1017.3
20260506090616 56 0.0 0.0 0.00 0.04 0.00 88 1017.3
20260506090116 56 0.0 0.0 0.00 0.04 0.00 89 1017.3
20260506085616 56 0.0 0.0 0.00 0.04 0.00 88 1017.3
20260506085116 56 0.0 0.0 0.00 0.04 0.00 87 1017.3
20260506084616 56 0.0 0.0 0.00 0.04 0.00 86 1017.4
20260506084116 57 0.0 0.0 0.00 0.04 0.00 85 1017.5
20260506083616 57 0.0 0.0 0.00 0.04 0.00 86 1017.5
20260506083116 57 0.0 0.0 0.00 0.04 0.00 86 1017.4
20260506082636 57 0.0 0.9 0.00 0.04 0.00 86 1017.5
20260506082116 58 0.0 0.0 0.00 0.04 0.00 85 1017.5
20260506081616 58 0.0 0.9 0.00 0.04 0.00 85 1017.4
20260506081116 58 0.0 0.0 0.00 0.04 0.00 85 1017.6
20260506080616 58 0.0 0.9 0.00 0.04 0.00 85 1017.5
20260506080116 58 0.0 0.9 0.00 0.04 0.00 85 1017.5
20260506073116 58 0.0 0.0 0.00 0.08 0.00 84 1017.5
20260506072616 59 0.0 0.9 0.00 0.08 0.00 84 1017.5
20260506072116 59 148 0.9 0.9 0.00 0.08 0.00 83 1017.5
20260506071636 59 148 0.9 1.7 0.00 0.09 0.00 83 1017.4
20260506071136 59 148 0.9 1.7 0.00 0.09 0.00 83 1017.4
20260506070616 59 148 0.9 0.9 0.00 0.09 0.00 83 1017.3
20260506070116 59 148 0.9 0.9 0.00 0.09 0.00 83 1017.3
20260506062116 57 125 0.9 0.9 0.00 0.21 0.10 84 1017.1
20260506061616 57 0.0 0.0 0.00 0.23 0.10 84 1017.1
20260506061116 57 0.0 0.0 0.00 0.24 0.10 82 1017.1
20260506060616 57 0.0 0.0 0.00 0.26 0.10 82 1017.0
20260506060116 58 0.0 0.0 0.00 0.31 0.10 80 1016.9
20260506051116 58 0.0 0.0 0.00 0.38 0.10 80 1016.6
20260506050616 58 0.0 0.0 0.00 0.38 0.10 81 1016.6
20260506050156 58 0.0 0.0 0.00 0.38 0.10 82 1016.5
20260506045116 58 0.0 0.0 0.00 0.38 0.10 80 1016.3
20260506044616 59 0.0 0.0 0.00 0.38 0.10 81 1016.3
20260506044116 59 0.0 0.0 0.00 0.38 0.10 80 1016.2
20260506043636 59 0.0 0.0 0.00 0.38 0.10 78 1016.2
20260506043116 59 0.0 0.0 0.00 0.38 0.10 79 1016.2
20260506042616 60 0.0 0.0 0.00 0.38 0.10 78 1016.2
20260506042116 60 0.0 0.0 0.00 0.38 0.10 78 1016.1
20260506041616 60 0.0 0.0 0.00 0.38 0.10 78 1016.1
20260506041116 60 0.0 0.0 0.00 0.38 0.10 78 1016.0
20260506040616 60 0.0 0.0 0.00 0.38 0.10 77 1015.9
20260506040116 60 0.0 0.0 0.00 0.38 0.10 77 1015.9
20260506035616 60 0.0 0.0 0.00 0.38 0.10 76 1015.8
20260506035116 61 0.0 0.0 0.00 0.38 0.10 76 1015.6
20260506034616 61 0.0 0.0 0.00 0.38 0.10 75 1015.6
20260506034116 61 0.0 0.9 0.00 0.38 0.10 74 1015.5
20260506033616 61 283 1.7 1.7 0.00 0.38 0.10 74 1015.4
20260506033116 61 260 1.7 1.7 0.00 0.38 0.10 73 1015.4
20260506032616 62 260 1.7 1.7 0.00 0.38 0.10 72 1015.4
20260506032116 62 283 1.7 2.6 0.00 0.38 0.10 71 1015.4
20260506031616 62 283 2.6 4.3 0.00 0.38 0.10 70 1015.3
20260506031116 62 305 0.9 0.9 0.00 0.38 0.10 67 1015.3
20260506030616 62 283 1.7 1.7 0.00 0.38 0.10 65 1015.1
20260506030116 62 283 1.7 2.6 0.00 0.38 0.10 64 1015.0
20260506025616 63 283 0.9 1.7 0.00 0.38 0.10 63 1014.8
20260506025116 63 283 1.7 3.5 0.00 0.38 0.10 63 1014.8
20260506024636 63 283 2.6 4.3 0.00 0.38 0.10 62 1014.7
20260506024116 63 283 0.9 1.7 0.00 0.38 0.10 61 1014.7
20260506023616 64 283 2.6 3.5 0.00 0.38 0.10 59 1014.6
20260506023116 64 283 1.7 3.5 0.00 0.38 0.10 58 1014.5
20260506022616 64 260 0.9 2.6 0.00 0.38 0.10 56 1014.5
20260506022116 64 260 0.9 3.5 0.00 0.40 0.10 54 1014.5
20260506021616 64 283 1.7 2.6 0.00 0.41 0.10 53 1014.5
20260506021116 64 283 1.7 2.6 0.00 0.41 0.10 53 1014.4
20260506020656 64 283 2.6 3.5 0.00 0.41 0.10 54 1014.3
20260506020116 65 283 2.6 4.3 0.00 0.41 0.10 54 1014.4
20260506015616 65 283 2.6 4.3 0.00 0.41 0.10 53 1014.4
20260506015136 65 283 1.7 2.6 0.00 0.41 0.10 55 1014.3
20260506014616 65 260 1.7 3.5 0.00 0.41 0.10 53 1014.2
20260506014116 65 260 2.6 3.5 0.00 0.41 0.10 53 1014.1
20260506013616 66 283 2.6 4.3 0.00 0.41 0.10 54 1014.1
20260506013116 66 305 3.5 5.2 0.00 0.41 0.10 53 1014.1
20260506012616 66 260 2.6 4.3 0.00 0.41 0.10 54 1014.1
20260506012136 66 260 4.3 6.1 0.00 0.41 0.10 57 1014.1
20260506011616 65 283 4.3 6.1 0.00 0.41 0.10 57 1014.1
20260506011116 65 283 3.5 5.2 0.00 0.41 0.10 58 1014.1
20260506010616 65 260 6.1 10.4 0.00 0.41 0.10 56 1014.0
20260506010116 65 260 5.2 9.6 0.00 0.41 0.10 57 1014.0
20260506005616 65 260 4.3 7.0 0.00 0.41 0.10 57 1014.0
20260506005116 65 260 6.1 8.7 0.00 0.41 0.10 57 1014.0
20260506004616 65 238 7.0 10.4 0.00 0.41 0.10 57 1014.0
20260506004116 65 283 5.2 7.8 0.00 0.41 0.10 59 1014.0
20260506003616 65 260 2.6 3.5 0.00 0.41 0.10 59 1014.0
20260506003136 65 260 5.2 8.7 0.00 0.41 0.10 58 1014.0
20260506002656 66 260 5.2 7.8 0.00 0.41 0.10 58 1013.9
20260506002115 65 283 4.3 7.0 0.00 0.41 0.10 58 1013.9
20260506001616 65 260 6.1 7.8 0.00 0.41 0.10 58 1014.0
20260506001115 65 283 6.1 10.4 0.00 0.41 0.10 59 1014.0
20260506000656 65 283 5.2 7.8 0.00 0.41 0.10 58 1014.0
20260506000115 66 260 5.2 7.0 0.00 0.41 0.10 56 1014.0
20260505235616 65 260 4.3 6.1 0.00 0.41 0.10 58 1014.0
20260505235116 65 260 5.2 8.7 0.00 0.41 0.10 57 1014.1
20260505234616 65 305 3.5 5.2 0.00 0.41 0.10 57 1014.0
20260505234115 65 305 3.5 5.2 0.00 0.41 0.10 57 1014.1
20260505233636 65 283 6.1 8.7 0.00 0.41 0.10 56 1014.1
20260505233115 65 283 5.2 7.8 0.00 0.41 0.10 55 1014.1
20260505232616 65 305 2.6 6.1 0.00 0.41 0.10 56 1014.1
20260505232115 65 283 5.2 7.8 0.00 0.41 0.10 53 1014.1
20260505231616 66 283 6.1 8.7 0.00 0.41 0.10 52 1014.0
20260505231115 66 283 7.8 11.3 0.00 0.41 0.10 52 1014.0
20260505230616 66 260 4.3 7.0 0.00 0.41 0.10 51 1014.0
20260505230116 66 305 6.1 8.7 0.00 0.41 0.10 49 1014.0
20260505225615 66 305 5.2 8.7 0.00 0.41 0.10 48 1014.1
20260505225116 67 305 7.0 11.3 0.00 0.41 0.10 47 1014.1
20260505224635 67 305 5.2 8.7 0.00 0.41 0.10 50 1014.0
20260505224115 66 260 7.8 10.4 0.00 0.41 0.10 48 1014.1
20260505223615 67 283 6.1 10.4 0.00 0.41 0.10 49 1014.2
20260505223116 67 283 4.3 7.0 0.00 0.41 0.10 49 1014.2
20260505222616 66 283 7.0 10.4 0.00 0.41 0.10 49 1014.2
20260505222136 67 283 6.1 8.7 0.00 0.41 0.10 49 1014.2
20260505221656 68 283 5.2 7.8 0.00 0.41 0.10 49 1014.3
20260505221115 68 305 7.0 9.6 0.00 0.41 0.10 46 1014.4
20260505220635 68 260 5.2 7.8 0.00 0.41 0.10 49 1014.3
20260505220135 68 283 6.1 13.0 0.00 0.41 0.10 48 1014.3
20260505215616 69 283 6.1 10.4 0.00 0.41 0.10 48 1014.4
20260505215115 68 305 4.3 6.1 0.00 0.41 0.10 49 1014.4
20260505214615 68 305 6.1 10.4 0.00 0.41 0.10 49 1014.5
20260505214116 68 283 7.8 11.3 0.00 0.41 0.10 48 1014.5
20260505213615 68 283 6.1 8.7 0.00 0.41 0.10 46 1014.5
20260505213116 68 283 7.0 9.6 0.00 0.41 0.10 48 1014.6
20260505212636 68 238 4.3 5.2 0.00 0.41 0.10 48 1014.6
20260505212115 68 260 7.8 10.4 0.00 0.41 0.10 49 1014.6
20260505211615 68 283 7.8 11.3 0.00 0.41 0.10 50 1014.6
20260505211136 67 305 3.5 5.2 0.00 0.41 0.10 50 1014.6
20260505210615 67 283 7.0 9.6 0.00 0.41 0.10 51 1014.6
20260505210115 67 260 3.5 5.2 0.00 0.41 0.10 50 1014.6
20260505205616 67 260 4.3 7.0 0.00 0.41 0.10 49 1014.6
20260505205115 67 260 2.6 5.2 0.00 0.41 0.10 50 1014.6
20260505204615 67 283 4.3 7.8 0.00 0.41 0.10 51 1014.6
20260505204136 68 260 3.5 5.2 0.00 0.41 0.10 52 1014.6
20260505203636 67 260 3.5 6.1 0.00 0.41 0.10 51 1014.5
20260505203115 68 283 4.3 7.8 0.00 0.41 0.10 50 1014.5
20260505202615 68 260 6.1 9.6 0.00 0.41 0.10 51 1014.5
20260505202115 67 238 4.3 7.0 0.00 0.41 0.10 53 1014.6
20260505201655 67 283 5.2 7.8 0.00 0.41 0.10 52 1014.5
20260505201115 67 260 4.3 9.6 0.00 0.41 0.10 54 1014.6
20260505200615 67 283 5.2 7.8 0.00 0.41 0.10 52 1014.6
20260505200155 67 305 5.2 7.8 0.00 0.41 0.10 52 1014.7
20260505195615 67 260 5.2 8.7 0.00 0.41 0.10 53 1014.7
20260505195116 67 283 5.2 7.8 0.00 0.41 0.10 52 1014.7
20260505194615 67 260 7.0 10.4 0.00 0.41 0.10 51 1014.7
20260505194115 67 283 6.1 9.6 0.00 0.41 0.10 52 1014.8
20260505193615 67 283 7.0 10.4 0.00 0.41 0.10 52 1014.9
20260505193116 66 305 5.2 7.8 0.00 0.41 0.10 55 1014.9
20260505192615 66 283 5.2 7.8 0.00 0.41 0.10 55 1014.9
20260505192115 65 283 4.3 6.1 0.00 0.41 0.10 53 1015.0
20260505191615 66 260 2.6 3.5 0.00 0.41 0.10 54 1015.1
20260505191115 65 283 5.2 7.8 0.00 0.41 0.10 52 1015.1
20260505190615 65 260 5.2 7.0 0.00 0.41 0.10 52 1015.1
20260505190115 65 260 6.1 7.0 0.00 0.41 0.10 52 1015.1
20260505185617 65 283 6.1 8.7 0.00 0.41 0.10 53 1015.1
20260505185117 65 260 6.1 8.7 0.00 0.41 0.10 55 1015.1
20260505184615 66 260 6.1 8.7 0.00 0.41 0.10 55 1015.1
20260505184117 66 260 3.5 6.1 0.00 0.41 0.10 55 1015.1
20260505183617 65 260 5.2 8.7 0.00 0.41 0.10 57 1015.2
20260505183117 65 238 5.2 7.8 0.00 0.41 0.10 57 1015.2
20260505182635 65 260 7.0 9.6 0.00 0.41 0.10 59 1015.2
20260505182137 65 260 4.3 7.0 0.00 0.41 0.10 61 1015.1
20260505181617 65 283 4.3 6.1 0.00 0.41 0.10 59 1015.1
20260505181117 64 283 4.3 6.1 0.00 0.41 0.10 60 1015.0
20260505180617 64 238 7.0 8.7 0.00 0.41 0.10 56 1015.0
20260505180117 64 283 6.1 8.7 0.00 0.41 0.10 61 1015.0
20260505175616 64 283 6.1 8.7 0.00 0.41 0.10 64 1014.9
20260505175117 64 260 4.3 6.1 0.00 0.41 0.10 64 1015.0
20260505174617 64 283 5.2 9.6 0.00 0.41 0.10 65 1014.9
20260505174238 64 260 7.0 12.2 0.00 0.41 0.10 64 1014.9
20260505173617 64 283 6.1 9.6 0.00 0.41 0.10 63 1014.8
20260505173117 65 283 7.0 9.6 0.00 0.41 0.10 63 1014.7
20260505172617 65 283 4.3 7.0 0.00 0.41 0.10 62 1014.7
20260505172117 64 260 4.3 6.1 0.00 0.41 0.10 63 1014.7
20260505171637 64 260 4.3 6.1 0.00 0.41 0.10 64 1014.6
20260505171117 64 260 3.5 11.3 0.00 0.41 0.10 65 1014.6
20260505170617 64 260 3.5 6.1 0.00 0.41 0.10 67 1014.6
20260505170117 63 260 2.6 4.3 0.00 0.41 0.10 71 1014.6
20260505165617 63 260 5.2 8.7 0.00 0.41 0.10 69 1014.5
20260505165135 64 260 5.2 7.8 0.00 0.41 0.10 70 1014.5
20260505164657 63 283 4.3 7.0 0.00 0.41 0.10 69 1014.4
20260505164117 63 283 3.5 6.1 0.00 0.41 0.10 70 1014.4
20260505163617 63 260 5.2 7.8 0.00 0.41 0.10 70 1014.4
20260505163117 63 260 4.3 7.0 0.00 0.41 0.10 71 1014.3
20260505162617 63 260 2.6 3.5 0.00 0.41 0.10 72 1014.2
20260505162117 62 260 3.5 6.1 0.00 0.41 0.10 72 1014.2
20260505161617 62 260 2.6 4.3 0.00 0.41 0.10 73 1014.2
20260505161117 62 260 3.5 6.1 0.00 0.41 0.10 76 1014.1
20260505160617 61 238 5.2 9.6 0.00 0.41 0.10 76 1014.1
20260505160117 61 215 2.6 4.3 0.00 0.41 0.10 81 1014.0
20260505153117 58 260 2.6 5.2 0.00 0.41 0.10 98 1014.1
20260505152617 57 305 2.6 4.3 0.00 0.41 0.10 98 1014.0
20260505152137 57 260 3.5 6.1 0.00 0.41 0.10 98 1014.0
20260505151617 57 283 2.6 5.2 0.00 0.41 0.10 98 1014.0
20260505151117 56 260 2.6 3.5 0.00 0.41 0.10 98 1014.0
20260505150617 56 260 2.6 4.3 0.00 0.41 0.10 98 1014.0
20260505150117 56 283 2.6 3.5 0.00 0.41 0.10 98 1014.0
20260505140617 54 0.0 1.7 0.00 0.41 0.10 98 1013.6
20260505140136 54 283 0.9 2.6 0.00 0.41 0.10 98 1013.7
20260505130116 54 0.0 0.0 0.00 0.41 0.10 98 1013.6
20260505124616 54 283 0.9 0.9 0.00 0.41 0.10 98 1013.5
20260505124116 54 283 0.9 0.9 0.00 0.41 0.10 98 1013.5
20260505123617 54 0.0 0.0 0.00 0.41 0.10 98 1013.5
20260505123117 54 0.0 0.0 0.00 0.41 0.10 98 1013.5
20260505122617 54 0.0 0.0 0.00 0.41 0.10 98 1013.4
20260505122116 54 0.0 0.0 0.00 0.41 0.10 98 1013.4
20260505121616 54 0.0 0.0 0.00 0.41 0.10 98 1013.3
20260505121116 54 0.0 0.0 0.00 0.41 0.10 98 1013.3
20260505120616 54 0.0 0.0 0.00 0.41 0.10 98 1013.3
20260505120116 53 0.0 0.0 0.00 0.41 0.10 98 1013.4
20260505115616 54 0.0 0.0 0.00 0.41 0.10 98 1013.4
20260505115116 54 0.0 0.0 0.00 0.41 0.10 98 1013.4
20260505114616 54 0.0 0.0 0.00 0.41 0.10 98 1013.4
20260505114116 54 0.0 0.0 0.00 0.41 0.10 98 1013.4
20260505113617 54 0.0 0.0 0.02 0.41 0.10 98 1013.4
20260505113116 54 0.0 0.0 0.02 0.41 0.10 98 1013.4
20260505112616 54 0.0 0.0 0.02 0.41 0.10 98 1013.4
20260505112116 54 0.0 0.9 0.02 0.41 0.10 98 1013.5
20260505111617 54 58 0.9 2.6 0.02 0.41 0.10 98 1013.5
20260505111136 54 0.0 0.9 0.02 0.41 0.10 98 1013.5
20260505110617 54 35 0.9 0.9 0.02 0.41 0.10 98 1013.6
20260505110116 54 0.0 0.0 0.02 0.41 0.10 98 1013.5